#timestamp,LO_Frequency,Hit,StdDev 
1598263215.5,286047002.7,N
1598263235.4,286047000.2,N
1598263255.2,286046999.7,N
1598263275.0,286047000.3,N
1598263276.0,286047000.3,N
1598263295.8,286047001.0,N
1598263315.6,286047002.6,N
1598263335.5,286047002.5,N
1598263355.3,286047002.6,N
1598263375.1,286047002.3,N
1598263395.9,286047000.0,N
1598263415.7,286047002.2,N
1598263435.5,286047002.7,N
1598263455.4,286047000.1,N
1598263475.2,286047000.2,N
1598263495.1,286047002.5,N
1598263496.0,286047002.5,N
1598263515.8,286047002.7,N
1598263535.6,286046999.9,N
1598263555.5,286047002.1,N
1598263575.3,286047002.3,N
1598263595.1,286047002.2,N
1598263615.9,286047002.5,N
1598263635.7,286047002.6,N
1598263655.6,286047002.3,N
1598263675.4,286047002.8,N
1598263695.2,286047003.9,Y
1598263715.1,286046999.8,P
1598263716.0,286046999.8,N
1598263735.8,286047000.8,N
1598263755.6,286047000.7,N
1598263775.5,286047000.9,N
1598263795.3,286046998.5,N
1598263815.2,286046999.0,N
1598263835.9,286047001.1,N
1598263855.7,286047000.8,N
1598263875.6,286047000.4,N
1598263895.4,286047000.5,N
1598263915.2,286047001.0,N
1598263935.1,286047000.3,N
1598263936.0,286047000.3,N
1598263955.8,286047000.4,N
1598263975.7,286047000.9,N
1598263995.5,286047000.8,N
1598264015.3,286047000.4,N
1598264035.2,286047000.5,N
1598264055.0,286047000.9,N
1598264055.9,286047000.9,N
1598264075.7,286047001.2,N
1598264095.6,286047000.9,N
1598264115.4,286046998.7,N
1598264135.3,286046998.7,N
1598264155.1,286046999.0,N
1598264175.9,286047000.7,N
1598264195.7,286047000.7,N
1598264215.5,286046998.4,N
1598264235.4,286047000.4,N
1598264255.2,286047000.1,N
1598264275.0,286047000.2,N
1598264275.9,286047000.2,N
1598264295.8,286047002.6,Y
1598264315.6,286046999.9,P
1598264335.5,286047000.5,N
1598264355.3,286047000.5,N
1598264375.1,286047000.3,N
1598264395.9,286047000.5,N
1598264415.7,286047000.4,N
1598264435.6,286047002.2,Y
1598264455.4,286047002.8,P
1598264475.2,286047000.6,N
1598264495.1,286047000.2,N
1598264496.0,286047000.2,N
1598264515.8,286047000.9,N
1598264535.6,286047002.8,Y
1598264555.5,286046998.4,P
1598264575.3,286047000.8,N
1598264595.2,286047000.8,N
1598264615.9,286047000.9,N
1598264635.7,286046998.1,N
1598264655.6,286047001.2,N
1598264675.4,286047000.5,N
1598264695.2,286046998.3,N
1598264715.1,286046998.8,N
1598264716.0,286046998.8,N
1598264735.8,286046999.1,N
1598264755.7,286046999.3,N
1598264775.5,286046999.2,N
1598264795.3,286046998.8,N
1598264815.2,286046999.3,N
1598264835.0,286046999.1,N
1598264835.9,286046999.1,N
1598264855.7,286046999.1,N
1598264875.6,286046999.5,N
1598264895.4,286046999.5,N
1598264915.3,286046998.7,N
1598264935.1,286046999.2,N
1598264936.0,286046999.2,N
1598264955.8,286046996.6,Y
1598264975.7,286046997.2,P
1598264995.5,286046996.5,P
1598265015.3,286046998.5,N
1598265035.2,286047001.1,N
1598265055.0,286046999.0,N
1598265055.9,286046999.0,N
1598265075.8,286046999.4,N
1598265095.6,286046997.1,N
1598265115.4,286046997.5,N
1598265135.3,286046997.2,N
1598265155.1,286046997.8,N
1598265175.8,286046996.6,N
1598265195.7,286046999.1,N
1598265215.5,286046999.2,N
1598265235.4,286046998.9,N
1598265255.2,286046999.1,N
1598265275.0,286046997.3,N
1598265275.9,286046997.3,N
1598265295.8,286046997.2,N
1598265315.6,286046997.7,N
1598265335.4,286046997.1,N
1598265355.3,286046997.2,N
1598265375.1,286046997.3,N
1598265395.9,286046996.7,N
1598265415.7,286046997.5,N
1598265435.5,286046997.5,N
1598265455.4,286046997.5,N
1598265475.2,286046995.3,Y
1598265495.0,286046996.9,P
1598265495.9,286046996.9,P
1598265515.8,286046999.4,N
1598265535.6,286046999.1,N
1598265555.5,286046996.9,N
1598265575.3,286046999.6,N
1598265595.1,286046998.8,N
1598265615.9,286046999.0,N
1598265635.7,286046996.5,Y
1598265655.5,286046998.5,P
1598265675.4,286046998.5,P
1598265695.2,286046999.3,P
1598265715.1,286047000.7,N
1598265716.0,286047000.7,N
1598265735.8,286047000.3,N
1598265755.6,286047000.6,N
1598265775.5,286047000.0,N
1598265795.3,286047000.3,N
1598265815.2,286047000.3,N
1598265835.9,286046999.7,N
1598265855.3,286047001.0,N
1598265875.2,286046998.3,N
1598265895.0,286046998.2,N
1598265895.9,286046998.2,N
1598265915.7,286046998.3,N
1598265935.6,286047000.7,N
1598265955.4,286047000.3,N
1598265975.3,286047001.0,N
1598265995.1,286047000.7,N
1598265996.0,286047000.7,N
1598266015.8,286046998.6,N
1598266035.7,286047000.6,N
1598266055.5,286046999.9,N
1598266075.4,286047000.4,N
1598266095.2,286046999.7,N
1598266115.0,286047002.1,N
1598266115.9,286047002.1,N
1598266135.8,286047002.4,N
1598266155.6,286047000.4,N
1598266175.4,286047000.1,N
1598266195.3,286046999.8,N
1598266215.1,286046999.7,N
1598266235.9,286047002.3,N
1598266255.7,286047002.4,N
1598266275.5,286046999.7,N
1598266295.4,286047000.4,N
1598266315.2,286047001.6,N
1598266335.0,286047001.4,N
1598266335.9,286047001.4,N
1598266355.8,286047004.1,Y
1598266375.6,286047001.6,P
1598266395.5,286047002.4,P
1598266415.3,286047002.2,N
1598266435.1,286047000.1,N
1598266455.9,286047002.5,N
1598266475.7,286047002.4,N
1598266495.6,286047002.5,N
1598266515.4,286047001.5,N
1598266535.2,286047003.7,Y
1598266555.1,286047000.1,P
1598266556.0,286047000.1,N
1598266575.8,286047000.4,N
1598266595.7,286047001.3,N
1598266615.5,286047002.6,Y
1598266635.3,286046998.4,P
1598266655.2,286046998.1,N
1598266675.0,286047001.1,N
1598266675.9,286047001.1,N
1598266695.7,286047000.3,N
1598266715.6,286047000.5,N
1598266735.4,286047001.1,N
1598266755.3,286047000.7,N
1598266775.1,286047000.8,N
1598266795.8,286047000.6,N
